Weather History for KDRM - May, 2014

Change the Weather History Date:

Sunday, May 11, 2014

  Actual Average (KCIU) Record (KCIU)
Temperature  
Mean Temperature 50 °F -  
Max Temperature 66 °F 66 °F 81 °F (1993)
Min Temperature 33 °F 37 °F 23 °F (1983)
Degree Days  
Heating Degree Days 16    
Moisture  
Dew Point 41 °F    
Average Humidity 73    
Maximum Humidity 100    
Minimum Humidity 46    
Precipitation  
Precipitation 0.00 in - - ()
Sea Level Pressure  
Sea Level Pressure 29.98 in    
Wind  
Wind Speed 2 mph (SSW)    
Max Wind Speed 8 mph    
Max Gust Speed -    
Visibility 10 miles    
Events      
Averages and records for this station are not official NWS values.
T = Trace of Precipitation, MM = Missing Value Source: NWS Daily Summary

Daily Weather History Graph

Daily Weather History Graph

Search for Another Location

Airport or City:

Trip Planner

Search our weather history database for the weather conditions in past years. The results will help you decide how hot, cold, wet, or windy it might be!

Date:

Astronomy

May. 11, 2014 Rise Set
Actual Time 6:07 AM EDT 8:55 PM EDT
Civil Twilight 5:33 AM EDT 9:30 PM EDT
Nautical Twilight 4:49 AM EDT 10:14 PM EDT
Astronomical Twilight 3:58 AM EDT 11:06 PM EDT
Moon 5:40 PM EDT (5/11) 4:24 AM EDT (5/11)
Length of Visible Light 15h 57m
Length of Day
14h 47m
Waxing Gibbous, 89% of the Moon is Illuminated
May 11
Waxing Gibbous
May 14
Full
May 21
Last Quarter
May 28
New
Jun 5
First Quarter

Hourly Weather History & Observations

Time (EDT) Temp. Windchill Dew Point Humidity Pressure Visibility Wind Dir Wind Speed Gust Speed Precip Events Conditions
12:15 AM 36.7 °F - 36.7 °F 100% 29.92 in 10.0 mi Calm Calm - N/A   Clear
12:35 AM 36.9 °F - 36.9 °F 100% 29.92 in 10.0 mi Calm Calm - N/A   Clear
12:55 AM 36.1 °F 33.5 °F 36.1 °F 100% 29.93 in 10.0 mi WSW 3.5 mph - N/A   Clear
1:14 AM 43.7 °F 42.1 °F 37.4 °F 78% 29.93 in 10.0 mi WSW 3.5 mph - N/A   Clear
1:35 AM 41.7 °F 39.8 °F 37.0 °F 83% 29.93 in 10.0 mi WSW 3.5 mph - N/A   Clear
1:55 AM 42.1 °F 40.2 °F 37.4 °F 83% 29.94 in 10.0 mi WSW 3.5 mph - N/A   Clear
2:15 AM 41.0 °F 39.0 °F 37.4 °F 87% 29.94 in 10.0 mi WSW 3.5 mph - N/A   Clear
2:35 AM 40.5 °F 37.3 °F 36.9 °F 87% 29.95 in 10.0 mi SW 4.6 mph - N/A   Clear
2:54 AM 41.4 °F - 37.4 °F 86% 29.95 in 10.0 mi Calm Calm - N/A   Clear
3:15 AM 41.5 °F - 37.4 °F 85% 29.95 in 10.0 mi Calm Calm - N/A   Clear
3:35 AM 39.2 °F - 36.7 °F 91% 29.95 in 10.0 mi Calm Calm - N/A   Clear
3:55 AM 39.2 °F 35.9 °F 36.3 °F 89% 29.95 in 10.0 mi SSW 4.6 mph - N/A   Clear
4:15 AM 38.7 °F 36.3 °F 36.1 °F 91% 29.95 in 10.0 mi SSW 3.5 mph - N/A   Clear
4:34 AM 38.3 °F - 36.3 °F 93% 29.95 in 10.0 mi Calm Calm - N/A   Clear
4:55 AM 36.5 °F - 36.1 °F 99% 29.95 in 10.0 mi Calm Calm - N/A   Clear
5:15 AM 36.1 °F 33.5 °F 36.1 °F 100% 29.95 in 10.0 mi SSW 3.5 mph - N/A   Clear
5:35 AM 35.4 °F 32.6 °F 35.4 °F 100% 29.95 in 10.0 mi SSW 3.5 mph - N/A   Clear
5:55 AM 37.4 °F - 37.4 °F 100% 29.96 in 10.0 mi Calm Calm - N/A   Clear
6:14 AM 34.9 °F - 34.9 °F 100% 29.97 in 10.0 mi Calm Calm - N/A   Clear
6:35 AM 33.8 °F - 33.8 °F 100% 29.97 in 10.0 mi Calm Calm - N/A   Clear
6:54 AM 33.8 °F - 33.8 °F 100% 29.97 in 10.0 mi Calm Calm - N/A   Clear
7:15 AM 35.6 °F - 35.6 °F 100% 29.98 in 10.0 mi Calm Calm - N/A   Clear
7:35 AM 38.7 °F - 38.7 °F 100% 29.98 in 10.0 mi Calm Calm - N/A   Clear
7:54 AM 44.4 °F - 41.5 °F 90% 29.99 in 10.0 mi Calm Calm - N/A   Clear
8:15 AM 48.2 °F - 39.9 °F 73% 29.99 in 10.0 mi Calm Calm - N/A   Clear
8:35 AM 50.0 °F - 41.2 °F 72% 29.99 in 10.0 mi SW 3.5 mph - N/A   Clear
8:55 AM 52.9 °F - 41.9 °F 66% 29.99 in 10.0 mi WSW 5.8 mph - N/A   Clear
9:15 AM 52.3 °F - 41.4 °F 66% 29.99 in 10.0 mi WSW 4.6 mph - N/A   Mostly Cloudy
9:35 AM 52.5 °F - 42.1 °F 68% 30.00 in 10.0 mi SW 3.5 mph - N/A   Overcast
9:55 AM 52.9 °F - 41.5 °F 65% 30.00 in 10.0 mi SW 5.8 mph - N/A   Overcast
10:15 AM 53.4 °F - 41.7 °F 65% 30.00 in 10.0 mi SW 4.6 mph - N/A   Overcast
10:34 AM 54.9 °F - 41.7 °F 61% 30.00 in 10.0 mi West 3.5 mph - N/A   Overcast
10:55 AM 56.7 °F - 41.9 °F 58% 30.00 in 10.0 mi Calm Calm - N/A   Overcast
11:14 AM 57.0 °F - 42.1 °F 57% 30.00 in 10.0 mi WSW 4.6 mph - N/A   Overcast
11:35 AM 54.3 °F - 42.8 °F 65% 30.01 in 10.0 mi SSW 8.1 mph - N/A   Overcast
11:55 AM 53.6 °F - 42.6 °F 66% 30.00 in 10.0 mi SW 8.1 mph - N/A   Overcast
12:15 PM 54.7 °F - 42.6 °F 64% 30.01 in 10.0 mi SW 5.8 mph - N/A   Overcast
12:35 PM 55.0 °F - 43.2 °F 64% 30.02 in 10.0 mi SW 6.9 mph - N/A   Overcast
12:55 PM 55.2 °F - 43.2 °F 64% 30.03 in 10.0 mi SW 6.9 mph - N/A   Overcast
1:15 PM 55.9 °F - 43.5 °F 63% 30.03 in 10.0 mi WSW 3.5 mph - N/A   Overcast
1:35 PM 57.4 °F - 44.2 °F 62% 30.02 in 10.0 mi Calm Calm - N/A   Overcast
1:55 PM 58.8 °F - 44.8 °F 60% 30.00 in 10.0 mi Calm Calm - N/A   Mostly Cloudy
2:15 PM 62.4 °F - 45.5 °F 54% 30.00 in 10.0 mi Calm Calm - N/A   Scattered Clouds
2:35 PM 65.7 °F - 44.8 °F 47% 30.00 in 10.0 mi West 5.8 mph - N/A   Mostly Cloudy
2:55 PM 64.6 °F - 45.5 °F 50% 30.00 in 10.0 mi West 3.5 mph - N/A   Overcast
3:15 PM 64.4 °F - 46.8 °F 53% 30.00 in 10.0 mi Calm Calm - N/A   Overcast
3:35 PM 63.7 °F - 47.5 °F 56% 30.00 in 10.0 mi Calm Calm - N/A   Mostly Cloudy
3:55 PM 64.2 °F - 46.8 °F 53% 29.99 in 10.0 mi Calm Calm - N/A   Mostly Cloudy
4:15 PM 64.2 °F - 45.7 °F 51% 29.99 in 10.0 mi Calm Calm - N/A   Mostly Cloudy
4:55 PM 64.0 °F - 46.4 °F 53% 30.00 in 10.0 mi Calm Calm - N/A   Mostly Cloudy
5:14 PM 64.8 °F - 46.6 °F 52% 30.00 in 10.0 mi Calm Calm - N/A   Mostly Cloudy
5:35 PM 66.0 °F - 45.9 °F 48% 29.99 in 10.0 mi Calm Calm - N/A   Mostly Cloudy
5:55 PM 66.2 °F - 45.3 °F 47% 29.99 in 10.0 mi Calm Calm - N/A   Mostly Cloudy
6:15 PM 66.2 °F - 45.0 °F 46% 29.99 in 10.0 mi Calm Calm - N/A   Overcast
6:35 PM 56.3 °F - 42.3 °F 59% 29.99 in 10.0 mi South 4.6 mph - N/A   Overcast
6:55 PM 55.0 °F - 41.7 °F 61% 29.99 in 10.0 mi SSE 5.8 mph - N/A   Scattered Clouds
7:15 PM 55.4 °F - 41.5 °F 60% 29.99 in 10.0 mi SSE 4.6 mph - N/A   Scattered Clouds
7:35 PM 55.0 °F - 41.4 °F 60% 29.99 in 10.0 mi SE 5.8 mph - N/A   Scattered Clouds
7:54 PM 54.7 °F - 41.4 °F 61% 29.99 in 10.0 mi SE 4.6 mph - N/A   Mostly Cloudy
8:15 PM 54.1 °F - 41.4 °F 62% 29.99 in 10.0 mi SE 4.6 mph - N/A   Mostly Cloudy
8:35 PM 52.7 °F - 41.2 °F 65% 30.00 in 10.0 mi SSE 5.8 mph - N/A   Scattered Clouds
8:55 PM 51.8 °F - 41.0 °F 67% 30.00 in 10.0 mi SSE 3.5 mph - N/A   Clear
9:15 PM 51.3 °F - 40.5 °F 67% 30.00 in 10.0 mi SSE 4.6 mph - N/A   Clear
9:34 PM 50.5 °F - 41.0 °F 70% 30.00 in 10.0 mi Calm Calm - N/A   Clear
9:55 PM 49.5 °F - 41.2 °F 73% 30.00 in 10.0 mi Calm Calm - N/A   Clear
10:15 PM 49.6 °F - 41.4 °F 73% 30.00 in 10.0 mi SE 3.5 mph - N/A   Clear
10:35 PM 50.7 °F - 41.2 °F 70% 30.01 in 10.0 mi Calm Calm - N/A   Scattered Clouds
10:55 PM 49.5 °F - 41.7 °F 75% 30.01 in 10.0 mi Calm Calm - N/A   Mostly Cloudy
11:15 PM 48.6 °F - 42.1 °F 78% 30.01 in 10.0 mi Calm Calm - N/A   Mostly Cloudy
11:35 PM 47.8 °F - 41.9 °F 80% 30.02 in 10.0 mi Calm Calm - N/A   Scattered Clouds